Location: Arnolds Mill
(42.3415°N, 73.5951°W)
Time: 10:32:53
(UTC+00:00)

BlueWalker 3 - Pass Details

Date: 22 June 2024
Orbit: 480 x 492 km, 53.2° (Epoch: 13 July)

Event Time Altitude Azimuth Distance (km) Brightness Sun altitude
Rises 07:45:45 0° 303° (WNW) 2,539 5.4 -13.5°
Reaches altitude 10° 07:47:58 10° 297° (WNW) 1,657 4.4 -13.3°
Maximum altitude 07:51:33 47° 223° (SW) 644 2.0 -12.8°
Drops below altitude 10° 07:55:08 10° 149° (SSE) 1,651 4.4 -12.4°
Sets 07:57:20 0° 143° (SE) 2,528 5.4 -12.1°
